Regional Weather Roundup
Issued by NWS Newport/Morehead, NC

Current Version | Previous Version | Graphics & Text | Print | Product List | Glossary On
Versions: 1 2 3 4 5 6 7 8 9 10 11 12 13 14 15 16 17 18 19 20 21 22 23 24 25 26 27 28 29 30 31 32 33 34 35 36 37 38 39 40 41 42 43 44 45 46 47 48 49 50
000 ASUS42 KMHX 010710 RWRMHX WEATHER ROUNDUP FOR EASTERN NORTH CAROLINA NATIONAL WEATHER SERVICE NEWPORT/MOREHEAD CITY NC 200 AM EST SUN FEB 01 2015 NOTE: "FAIR" INDICATES FEW OR NO CLOUDS BELOW 12,000 FEET WITH NO SIGNIFICANT WEATHER AND/OR OBSTRUCTIONS TO VISIBILITY NCZ015>017-031-032-045>047-102-103-010800- NORTH COAST CITY SKY/WX TMP DP RH WIND PRES REMARKS EDENTON CLEAR 33 22 63 SW7 30.29R ELIZABETH CITY CLEAR 32 21 64 SW5 30.28S KITTY HAWK SUNNY 34 23 65 SW3 30.26F MANTEO CLEAR 34 25 69 CALM 30.29S $$ NCZ045>047-081-094-103-104-010800- CENTRAL COAST CITY SKY/WX TMP DP RH WIND PRES REMARKS FRISCO CLEAR 36 22 56 W7 30.30S SWANQUARTER N/A 37 N/A N/A SW7 30.27S $$ NCZ095-097-098-100-101-010800- SOUTHERN COAST CITY SKY/WX TMP DP RH WIND PRES REMARKS BEAUFORT CLEAR 29 23 78 CALM 30.31S CEDAR ISLAND N/A 34 N/A N/A S6 30.33S JACKSONVILLE PTCLDY 35 24 64 SW3 30.30F PINEY ISLAND N/A N/A N/A N/A MISG 30.30F WILMINGTON CLEAR 31 28 89 CALM 30.30F $$ NCZ011>013-027>030-043-044-078>080-089-090>093-098-010800- COASTAL PLAIN CITY SKY/WX TMP DP RH WIND PRES REMARKS AHOSKIE CLEAR 30 16 56 CALM 30.28S CLINTON MOCLDY 36 22 58 CALM 30.30S ELIZABETHTOWN MOCLDY 35 23 63 SW3 30.30S GOLDSBORO MOCLDY 35 27 73 CALM 30.27F GREENVILLE PTCLDY 34 21 60 SW5 30.29S HAVELOCK PTCLDY 28 22 78 SW3 30.32S KENANSVILLE PTCLDY 32 24 73 CALM 30.31S KINSTON MOCLDY 34 22 62 SW5 30.30S NEW BERN PTCLDY 35 23 61 SW6 30.31F RICHLANDS PTCLDY 28 23 80 CALM 30.31F ROCKY MOUNT CLOUDY 33 21 61 CALM 30.28S WASHINGTON CLEAR 32 18 56 CALM 30.29S WHITEVILLE MOCLDY 34 26 72 SW3 30.31R $$ AMZ130-135-150-152-154-156-158-170-250-252-270-ANZ085-086-088-633-658-670-010800- MARINE OBSERVATIONS STATION/POSITION TIME TEMP WIND PRES WAVE SWELL AIR SEA DIR/SP/G HT/PER HT/PER (UTC) (F) (DEG/KT/KT) (MB) (FT/S) (FT/S) CHESAPEAKE LIGHT 0600 38 220/ 5/ 5 1025.7 64 E VA BEACH 0700 41 48 270/ 8/ 10 1024.8 4/ 8 3/ 8 DUCK 0700 36 40 230/ 7/ 9 1024.3 2 E DUCK 0700 41 N/A 3/ 8 10 NE DUCK 0700 43 N/A 4/ 8 OREGON INLET 0700 37 39 220/ 6/ 7 1025.4 13E OREGON INLT 0700 45 N/A 5/ 8 2/12 HATTERAS CG 0700 41 250/ 5/ 7 1026.2 DIAMOND BUOY 0700 48 71 290/ 12/ 16 1026.0 6/11 5/11 17 S OCRACOKE NOT AVBL CAPE LOOKOUT 0600 45 250/ 5/ 6 1026.1 BEAUFORT LAB 0700 37 45 360/ 2/ 2 1025.3 27 SE WRIGHTSVLE NOT AVBL 5 SE WRIGHTSVLE 0600 47 51 250/ 8/ 8 1026.6 225 S CAPE HAT 0625 56 70 10/ 6/ 12 1026.6 10/11 10/11 41 SE CHARLESTON 0700 55 69 160/ 2/ 6 1026.3 4/10 3/10 $$

USA.gov is the U.S. government's official web portal to all federal, state and local government web resources and services.